Live-Position
3D-Globus wird geladen...
Über OneWeb SL0188
Group: 3 satellites
Beschreibung wird geladen...
Nächste Überflüge
Passes for default location (London). Set your location on the main map for personalized predictions.
Höhenverlauf
Loading altitude history...
No altitude history available
Zweizeiliger Elementsatz
1 48231U 21031X 26119.56986700 .00000260 00000-0 66734-3 0 9992
2 48231 87.8917 299.4310 0001707 93.2736 266.8589 13.14502162241751
Epoch: 29. Apr. 2026 •
Age: 7 hours
Aktueller Status
Höhe 1224.7 km
Geschwindigkeit 7.24 km/s
Subsatellitenpunkt -46.43°S,
40.79°W
Startdatum 25. Apr. 2021
Alter 5 years
Typ internet
Startgruppe
Unknown Vehicle •
OneWeb Launch 6 •
36 satellites
OneWeb SL0176
48210
OneWeb SL0184 48211
OneWeb SL0179 48212
OneWeb SL0180 48213
OneWeb SL0218 48214
OneWeb SL0209 48215
OneWeb SL0198 48216
OneWeb SL0189 48217
OneWeb SL0196 48218
OneWeb SL0183 48219
OneWeb SL0185 48220
OneWeb SL0187 48221
OneWeb SL0192 48222
OneWeb SL0219 48223
OneWeb SL0202 48224
OneWeb SL0204 48225
OneWeb SL0205 48226
OneWeb SL0206 48227
OneWeb SL0182 48228
OneWeb SL0186 48229
...and 15 more
Technische Details
Klassifizierung Payload
Masse 148.00 kg
Trockenmasse 140.00 kg
Gesamtmasse 148.00 kg
Länge 1.30 m
Durchmesser 1.00 m
Spannweite 5.00 m
Form Trapezoid+2 pan
Hersteller ONEWUS
Bus-Typ ARROW
Phasenstatus In Orbit
Besitzer/Staat ONEWEBN/UK
Most Searched
Loading...